Regional Weather Roundup
Issued by NWS

Home | Current Version | Previous Version | Graphics & Text | Print | Product List | Glossary On
Versions: 1 2 3 4 5 6 7 8 9 10 11 12 13 14 15 16 17 18 19 20 21 22 23 24 25 26 27 28 29 30 31 32 33 34 35 36 37 38 39 40 41 42 43 44 45 46 47 48 49 50
000
ASUS43 KDMX 010310
RWRIA

WEATHER ROUNDUP FOR IOWA
NATIONAL WEATHER SERVICE DES MOINES IA
1000 PM CDT WED AUG 31 2016

NOTE: "FAIR" INDICATES FEW OR NO CLOUDS BELOW 12,000 FEET WITH NO
SIGNIFICANT WEATHER AND/OR OBSTRUCTIONS TO VISIBILITY.

* - THESE STATIONS ARE NOT NWS STATIONS...THUS NOT UNDER NWS
QUALITY CONTROL.  THEY ALSO DO NOT REPORT WEATHER SUCH
AS PRECIPITATION OR FOG.

IAZ001>003-012>014-020>022-031>034-043>046-010400-
   NORTHWEST IOWA

CITY           SKY/WX    TMP DP  RH WIND       PRES   REMARKS
CARROLL *      CLEAR     61  59  94 CALM      30.18S
CHEROKEE *     CLEAR     64  62  95 CALM      30.20R
DENISON *      CLEAR     63  61  94 CALM      30.17R
LE MARS *      CLOUDY    64  61  88 CALM      30.21R
ORANGE CITY *  CLEAR     70  63  78 E3        30.21R
SHELDON *      CLEAR     63  61  94 NE6       30.20R
SIOUX CITY     CLEAR     69  63  81 E3        30.19R
SPENCER        CLEAR     60  57  89 NE5       30.21R
STORM LAKE *   CLEAR     64  59  82 NE6       30.21R
$$

IAZ055>058-069>071-079>083-090>094-010400-
   SOUTHWEST IOWA

CITY           SKY/WX    TMP DP  RH WIND       PRES   REMARKS
ATLANTIC *     CLEAR     64  61  88 N5        30.18R
AUDUBON *      CLEAR     61  57  88 CALM      30.19R
CLARINDA *       N/A     64  64 100 MISG        N/A
COUNCIL BLFS * CLEAR     66  61  82 N6        30.18R
CRESTON *      CLEAR     63  61  94 NE6       30.18R
HARLAN  *      CLEAR     63  63 100 CALM      30.22R
LAMONI         CLEAR     65  60  84 NE6       30.15R
RED OAK *      CLEAR     63  61  94 N5        30.17R
SHENANDOAH *   CLEAR     64  63  94 CALM      30.17R
$$

IAZ047>049-059>061-072>074-084-010400-
   CENTRAL IOWA

CITY           SKY/WX    TMP DP  RH WIND       PRES   REMARKS
AMES           CLEAR     61  60  97 NW3       30.16R
ANKENY *         N/A    N/A N/A N/A MISG        N/A
BOONE *          N/A     63  57  82 CALM      30.17R
CHARITON *       N/A     64  61  88 NE5       30.15R
DES MOINES     PTCLDY    70  58  65 NE6       30.15R
GRINNELL*      CLEAR     63  58  82 N3        30.16S
KNOXVILLE *    PTCLDY    68  57  68 N3        30.14R
MARSHALLTOWN   CLEAR     62  59  90 N7        30.15R
NEWTON *       CLEAR     64  59  82 CALM      30.15R
PELLA *        CLOUDY    62  59  90 CALM      30.16R
PERRY *          N/A     63  62  97 N5        30.17S
$$

IAZ004>006-015-016-023>025-035-036-010400-
   NORTH CENTRAL IOWA

CITY           SKY/WX    TMP DP  RH WIND       PRES   REMARKS
ALGONA *       CLEAR     66  59  77 CALM      30.20R
ESTHERVILLE    CLEAR     62  59  90 N5        30.20R
FORT DODGE *   CLEAR     64  55  72 CALM      30.20R
MASON CITY     CLEAR     58  55  90 CALM      30.21R
FOREST CITY *    N/A     59  59 100 CALM      30.20R
WEBSTER CITY * CLEAR     61  61 100 N6        30.17R
IOWA FALLS *     N/A     64  58  80 N3        30.19R
$$

IAZ007>011-017>019-026>030-037>042-050>054-066-010400-
   NORTHEAST IOWA

CITY           SKY/WX    TMP DP  RH WIND       PRES   REMARKS
CEDAR RAPIDS   CLEAR     66  57  72 N6        30.14R
CHARLES CITY * CLEAR     61  57  88 NE6       30.18R
CLINTON *      CLEAR     61  59  93 N7        30.13R
DECORAH *      CLEAR     61  57  88 CALM      30.17R
DUBUQUE        CLEAR     61  57  87 CALM      30.15R
MONTICELLO *   CLEAR     61  59  94 CALM      30.14S
OELWEIN *      CLEAR     61  57  88 NE3       30.17S
WATERLOO       CLEAR     61  54  77 NW3       30.15R
$$

IAZ064-065-067-068-078-010400-
   EAST CENTRAL IOWA

CITY           SKY/WX    TMP DP  RH WIND       PRES   REMARKS
DAVENPORT      CLEAR     61  58  90 NE6       30.13R
IOWA CITY      CLEAR     66  59  78 N5        30.14R
MT. PLEASANT * CLEAR     65  60  86 N7        30.13R
MUSCATINE *    CLEAR     64  59  82 CALM      30.13R
QUAD CITIES    CLEAR     68  57  68 NE3       30.11R
$$

IAZ062-063-075>077-085>089-095>099-010400-
   SOUTHEAST IOWA

CITY           SKY/WX    TMP DP  RH WIND       PRES   REMARKS
BURLINGTON     CLEAR     65  61  87 N8        30.11R
FAIRFIELD *    CLOUDY    63  59  88 N6        30.13R
FORT MADISON * CLEAR     63  61  94 N3        30.12S
KEOKUK *       PTCLDY    66  63  88 N5        30.10S
OSKALOOSA *      N/A     61  58  89 N7        30.14S
OTTUMWA        CLOUDY    64  58  80 N8        30.13S
WASHINGTON *   CLEAR     63  59  88 N7        30.14R
$$

ABBREVIATIONS USED IN REMARKS
   TC - TEMPERATURES IN CELSIUS
  WCI - WIND CHILL INDEX
   HX - HEAT INDEX
  VSB - VISIBILITY
$$





USA.gov is the U.S. government's official web portal to all federal, state and local government web resources and services.